Time,TemperatureF,DewpointF,PressureIn,WindDirection,WindDirectionDegrees,WindSpeedMPH,WindSpeedGustMPH,Humidity,HourlyPrecipIn,Conditions,Clouds,dailyrainin,SoftwareType,DateUTC
2013-01-08 00:04:00,34.4,31.0,30.13,West,270,7.0,10.0,86,0.00,,,0.00,weatherlink.com 1.10,2013-01-08 08:04:00,
2013-01-08 00:19:00,34.1,30.0,30.13,West,266,5.0,9.0,86,0.00,,,0.00,weatherlink.com 1.10,2013-01-08 08:19:00,
2013-01-08 00:34:00,34.0,30.0,30.13,WNW,284,6.0,9.0,86,0.00,,,0.00,weatherlink.com 1.10,2013-01-08 08:34:00,
2013-01-08 00:49:00,34.0,30.0,30.14,WSW,256,10.0,11.0,86,0.00,,,0.00,weatherlink.com 1.10,2013-01-08 08:49:00,
2013-01-08 01:04:00,33.9,30.0,30.14,West,259,8.0,10.0,86,0.00,,,0.00,weatherlink.com 1.10,2013-01-08 09:04:00,
2013-01-08 01:19:00,33.7,30.0,30.15,West,274,9.0,9.0,86,0.00,,,0.00,weatherlink.com 1.10,2013-01-08 09:19:00,
2013-01-08 01:34:00,34.3,30.0,30.16,WNW,298,5.0,10.0,85,0.00,,,0.00,weatherlink.com 1.10,2013-01-08 09:34:00,
2013-01-08 01:49:00,34.2,30.0,30.16,West,273,7.0,11.0,85,0.00,,,0.00,weatherlink.com 1.10,2013-01-08 09:49:00,
2013-01-08 02:04:00,34.2,31.0,30.16,West,265,9.0,13.0,86,0.00,,,0.00,weatherlink.com 1.10,2013-01-08 10:04:00,
2013-01-08 02:19:00,34.3,30.0,30.17,West,265,7.0,11.0,85,0.00,,,0.00,weatherlink.com 1.10,2013-01-08 10:19:00,
2013-01-08 02:34:00,34.2,31.0,30.17,West,261,10.0,11.0,86,0.00,,,0.00,weatherlink.com 1.10,2013-01-08 10:34:00,
2013-01-08 02:49:00,35.2,31.0,30.18,West,264,12.0,17.0,84,0.00,,,0.00,weatherlink.com 1.10,2013-01-08 10:49:00,
2013-01-08 03:04:00,34.6,31.0,30.18,West,264,11.0,14.0,85,0.00,,,0.00,weatherlink.com 1.10,2013-01-08 11:04:00,
2013-01-08 03:19:00,34.3,31.0,30.18,West,260,9.0,13.0,86,0.00,,,0.00,weatherlink.com 1.10,2013-01-08 11:19:00,
2013-01-08 03:34:00,33.9,30.0,30.18,West,274,2.0,6.0,86,0.00,,,0.00,weatherlink.com 1.10,2013-01-08 11:34:00,
2013-01-08 03:49:00,33.5,30.0,30.19,WNW,300,2.0,6.0,87,0.01,,,0.01,weatherlink.com 1.10,2013-01-08 11:49:00,
2013-01-08 04:04:00,33.8,30.0,30.19,West,270,4.0,8.0,87,0.01,,,0.01,weatherlink.com 1.10,2013-01-08 12:04:00,
2013-01-08 04:19:00,33.9,31.0,30.19,West,281,6.0,7.0,87,0.01,,,0.01,weatherlink.com 1.10,2013-01-08 12:19:00,
2013-01-08 04:34:00,33.6,30.0,30.18,WNW,295,3.0,6.0,87,0.01,,,0.01,weatherlink.com 1.10,2013-01-08 12:34:00,
2013-01-08 04:49:00,32.5,29.0,30.18,WNW,287,3.0,5.0,88,0.00,,,0.01,weatherlink.com 1.10,2013-01-08 12:49:00,
2013-01-08 05:04:00,32.8,30.0,30.18,WNW,288,1.0,5.0,88,0.00,,,0.01,weatherlink.com 1.10,2013-01-08 13:04:00,
2013-01-08 05:19:00,31.8,29.0,30.18,NW,324,0.0,1.0,88,0.00,,,0.01,weatherlink.com 1.10,2013-01-08 13:19:00,
2013-01-08 05:34:00,30.4,28.0,30.19,ENE,77,0.0,1.0,90,0.00,,,0.01,weatherlink.com 1.10,2013-01-08 13:34:00,
2013-01-08 05:49:00,29.3,27.0,30.19,ESE,107,0.0,1.0,91,0.00,,,0.01,weatherlink.com 1.10,2013-01-08 13:49:00,
2013-01-08 06:04:00,29.0,28.0,30.20,NNE,15,0.0,3.0,94,0.00,,,0.01,weatherlink.com 1.10,2013-01-08 14:04:00,
2013-01-08 06:19:00,27.9,26.0,30.20,North,6,0.0,0.0,91,0.00,,,0.01,weatherlink.com 1.10,2013-01-08 14:19:00,
2013-01-08 06:34:00,26.3,25.0,30.20,North,6,0.0,0.0,93,0.00,,,0.01,weatherlink.com 1.10,2013-01-08 14:34:00,
2013-01-08 06:50:00,27.6,27.0,30.20,North,6,0.0,0.0,96,0.00,,,0.01,weatherlink.com 1.10,2013-01-08 14:50:00,
2013-01-08 07:05:00,28.5,27.0,30.21,North,11,1.0,1.0,94,0.00,,,0.01,weatherlink.com 1.10,2013-01-08 15:05:00,
2013-01-08 07:20:00,31.0,29.0,30.21,WNW,302,3.0,5.0,92,0.00,,,0.01,weatherlink.com 1.10,2013-01-08 15:20:00,
2013-01-08 07:35:00,32.4,30.0,30.21,WNW,303,2.0,5.0,89,0.00,,,0.01,weatherlink.com 1.10,2013-01-08 15:35:00,
2013-01-08 07:50:00,33.4,30.0,30.21,West,277,3.0,6.0,87,0.00,,,0.01,weatherlink.com 1.10,2013-01-08 15:50:00,
2013-01-08 08:05:00,32.4,29.0,30.21,West,266,2.0,4.0,88,0.00,,,0.01,weatherlink.com 1.10,2013-01-08 16:05:00,
2013-01-08 08:20:00,33.4,30.0,30.21,West,277,4.0,5.0,87,0.00,,,0.01,weatherlink.com 1.10,2013-01-08 16:20:00,
2013-01-08 08:35:00,33.1,30.0,30.22,WSW,249,1.0,3.0,87,0.00,,,0.01,weatherlink.com 1.10,2013-01-08 16:35:00,
2013-01-08 08:50:00,32.0,29.0,30.23,ESE,108,1.0,2.0,88,0.00,,,0.01,weatherlink.com 1.10,2013-01-08 16:50:00,
2013-01-08 09:05:00,32.9,30.0,30.23,East,88,0.0,1.0,88,0.00,,,0.01,weatherlink.com 1.10,2013-01-08 17:05:00,
2013-01-08 09:20:00,33.3,30.0,30.23,ESE,120,0.0,1.0,87,0.00,,,0.01,weatherlink.com 1.10,2013-01-08 17:20:00,
2013-01-08 09:35:00,33.0,30.0,30.23,East,84,2.0,3.0,87,0.00,,,0.01,weatherlink.com 1.10,2013-01-08 17:35:00,
2013-01-08 09:50:00,33.8,31.0,30.23,East,88,0.0,1.0,88,0.00,,,0.01,weatherlink.com 1.10,2013-01-08 17:50:00,
2013-01-08 10:05:00,33.5,31.0,30.22,NNE,15,1.0,1.0,89,0.00,,,0.01,weatherlink.com 1.10,2013-01-08 18:05:00,
2013-01-08 10:20:00,34.8,32.0,30.22,NNE,13,0.0,1.0,88,0.00,,,0.01,weatherlink.com 1.10,2013-01-08 18:20:00,
2013-01-08 10:35:00,35.5,32.0,30.21,SE,127,1.0,1.0,86,0.00,,,0.01,weatherlink.com 1.10,2013-01-08 18:35:00,
2013-01-08 10:50:00,34.8,32.0,30.20,East,97,0.0,2.0,89,0.00,,,0.01,weatherlink.com 1.10,2013-01-08 18:50:00,
2013-01-08 11:05:00,34.8,32.0,30.19,SE,126,0.0,1.0,90,0.00,,,0.01,weatherlink.com 1.10,2013-01-08 19:05:00,
2013-01-08 11:20:00,36.6,33.0,30.19,SE,126,0.0,0.0,88,0.00,,,0.01,weatherlink.com 1.10,2013-01-08 19:20:00,
2013-01-08 11:35:00,34.5,32.0,30.18,NE,56,0.0,2.0,90,0.00,,,0.01,weatherlink.com 1.10,2013-01-08 19:35:00,
2013-01-08 11:50:00,33.8,32.0,30.17,ESE,121,1.0,1.0,92,0.00,,,0.01,weatherlink.com 1.10,2013-01-08 19:50:00,
2013-01-08 12:05:00,33.4,32.0,30.16,ESE,123,0.0,1.0,93,0.00,,,0.01,weatherlink.com 1.10,2013-01-08 20:05:00,
2013-01-08 12:20:00,33.0,32.0,30.14,East,81,2.0,3.0,94,0.00,,,0.01,weatherlink.com 1.10,2013-01-08 20:20:00,
2013-01-08 12:35:00,32.9,32.0,30.14,ENE,70,2.0,3.0,95,0.00,,,0.01,weatherlink.com 1.10,2013-01-08 20:35:00,
2013-01-08 12:50:00,33.0,32.0,30.13,East,88,1.0,3.0,95,0.00,,,0.01,weatherlink.com 1.10,2013-01-08 20:50:00,
2013-01-08 13:05:00,33.3,32.0,30.13,ESE,105,2.0,3.0,94,0.00,,,0.01,weatherlink.com 1.10,2013-01-08 21:05:00,
2013-01-08 13:20:00,33.2,32.0,30.12,ENE,68,3.0,4.0,94,0.00,,,0.01,weatherlink.com 1.10,2013-01-08 21:20:00,
2013-01-08 13:35:00,32.8,32.0,30.12,East,98,1.0,4.0,95,0.00,,,0.01,weatherlink.com 1.10,2013-01-08 21:35:00,
2013-01-08 13:50:00,32.8,32.0,30.12,ENE,72,1.0,5.0,96,0.00,,,0.01,weatherlink.com 1.10,2013-01-08 21:50:00,
2013-01-08 14:05:00,32.8,32.0,30.12,ENE,69,2.0,3.0,95,0.00,,,0.01,weatherlink.com 1.10,2013-01-08 22:05:00,
2013-01-08 14:20:00,32.9,32.0,30.12,ENE,57,1.0,5.0,95,0.00,,,0.01,weatherlink.com 1.10,2013-01-08 22:20:00,
2013-01-08 14:35:00,32.7,32.0,30.12,East,84,3.0,3.0,96,0.00,,,0.01,weatherlink.com 1.10,2013-01-08 22:35:00,
2013-01-08 14:50:00,32.8,32.0,30.13,East,86,0.0,3.0,96,0.00,,,0.01,weatherlink.com 1.10,2013-01-08 22:50:00,
2013-01-08 15:05:00,32.9,32.0,30.13,East,83,0.0,3.0,96,0.00,,,0.01,weatherlink.com 1.10,2013-01-08 23:05:00,
2013-01-08 15:20:00,33.0,32.0,30.13,SE,128,0.0,2.0,97,0.00,,,0.01,weatherlink.com 1.10,2013-01-08 23:20:00,
2013-01-08 15:35:00,32.9,32.0,30.13,ENE,77,2.0,3.0,97,0.00,,,0.01,weatherlink.com 1.10,2013-01-08 23:35:00,
2013-01-08 15:50:00,33.0,32.0,30.13,ENE,68,3.0,5.0,97,0.00,,,0.01,weatherlink.com 1.10,2013-01-08 23:50:00,
2013-01-08 16:05:00,33.1,32.0,30.12,ENE,67,1.0,8.0,97,0.00,,,0.01,weatherlink.com 1.10,2013-01-09 00:05:00,
2013-01-08 16:20:00,33.1,32.0,30.11,ENE,68,4.0,5.0,97,0.00,,,0.01,weatherlink.com 1.10,2013-01-09 00:20:00,
2013-01-08 16:35:00,33.1,32.0,30.10,NE,52,2.0,6.0,97,0.02,,,0.03,weatherlink.com 1.10,2013-01-09 00:35:00,
2013-01-08 16:50:00,33.2,33.0,30.10,NNE,29,2.0,8.0,97,0.03,,,0.04,weatherlink.com 1.10,2013-01-09 00:50:00,
2013-01-08 17:05:00,32.9,32.0,30.10,ESE,107,2.0,7.0,97,0.04,,,0.05,weatherlink.com 1.10,2013-01-09 01:05:00,
2013-01-08 17:20:00,32.9,32.0,30.09,ENE,64,3.0,9.0,97,0.05,,,0.06,weatherlink.com 1.10,2013-01-09 01:20:00,
2013-01-08 17:35:00,32.9,32.0,30.09,NE,47,6.0,11.0,97,0.04,,,0.07,weatherlink.com 1.10,2013-01-09 01:35:00,
2013-01-08 17:50:00,33.2,33.0,30.08,East,86,8.0,9.0,97,0.04,,,0.08,weatherlink.com 1.10,2013-01-09 01:50:00,
2013-01-08 18:05:00,33.5,33.0,30.08,East,84,2.0,9.0,96,0.04,,,0.09,weatherlink.com 1.10,2013-01-09 02:05:00,
2013-01-08 18:20:00,33.9,33.0,30.08,East,87,6.0,9.0,96,0.03,,,0.09,weatherlink.com 1.10,2013-01-09 02:20:00,
2013-01-08 18:35:00,33.8,33.0,30.08,NE,47,3.0,7.0,95,0.03,,,0.10,weatherlink.com 1.10,2013-01-09 02:35:00,
2013-01-08 18:50:00,33.9,33.0,30.07,ESE,102,6.0,9.0,95,0.03,,,0.11,weatherlink.com 1.10,2013-01-09 02:50:00,
2013-01-08 19:21:00,34.6,33.0,30.07,East,89,1.0,6.0,94,0.04,,,0.13,weatherlink.com 1.10,2013-01-09 03:21:00,
2013-01-08 19:36:00,36.3,34.0,30.07,SSW,212,4.0,4.0,91,0.04,,,0.14,weatherlink.com 1.10,2013-01-09 03:36:00,
2013-01-08 19:51:00,36.9,34.0,30.07,ESE,122,3.0,6.0,89,0.03,,,0.14,weatherlink.com 1.10,2013-01-09 03:51:00,
2013-01-08 20:06:00,37.5,34.0,30.08,SE,126,5.0,7.0,87,0.03,,,0.15,weatherlink.com 1.10,2013-01-09 04:06:00,
2013-01-08 20:21:00,37.6,34.0,30.07,SE,125,3.0,8.0,86,0.04,,,0.17,weatherlink.com 1.10,2013-01-09 04:21:00,
2013-01-08 20:36:00,37.4,34.0,30.07,SE,131,3.0,9.0,86,0.04,,,0.18,weatherlink.com 1.10,2013-01-09 04:36:00,
2013-01-08 20:51:00,37.6,34.0,30.07,SE,135,3.0,8.0,86,0.05,,,0.19,weatherlink.com 1.10,2013-01-09 04:51:00,
2013-01-08 21:06:00,38.1,34.0,30.07,East,90,0.0,8.0,84,0.04,,,0.19,weatherlink.com 1.10,2013-01-09 05:06:00,
2013-01-08 21:21:00,36.8,33.0,30.06,East,94,3.0,5.0,86,0.03,,,0.20,weatherlink.com 1.10,2013-01-09 05:21:00,
2013-01-08 21:37:00,37.8,33.0,30.06,ESE,122,5.0,8.0,84,0.02,,,0.20,weatherlink.com 1.10,2013-01-09 05:37:00,
2013-01-08 21:51:00,37.6,33.0,30.06,SE,141,6.0,10.0,84,0.02,,,0.21,weatherlink.com 1.10,2013-01-09 05:51:00,
2013-01-08 22:06:00,37.8,33.0,30.06,SE,129,3.0,11.0,83,0.02,,,0.21,weatherlink.com 1.10,2013-01-09 06:06:00,
2013-01-08 22:21:00,36.9,33.0,30.07,SSE,153,0.0,3.0,85,0.02,,,0.22,weatherlink.com 1.10,2013-01-09 06:21:00,
2013-01-08 22:36:00,36.8,33.0,30.06,ESE,106,0.0,4.0,85,0.02,,,0.22,weatherlink.com 1.10,2013-01-09 06:36:00,
2013-01-08 22:51:00,36.9,33.0,30.06,East,91,0.0,2.0,85,0.02,,,0.23,weatherlink.com 1.10,2013-01-09 06:51:00,
2013-01-08 23:06:00,36.8,33.0,30.06,ENE,70,0.0,2.0,85,0.02,,,0.23,weatherlink.com 1.10,2013-01-09 07:06:00,
2013-01-08 23:21:00,36.5,33.0,30.06,NE,46,2.0,4.0,86,0.01,,,0.23,weatherlink.com 1.10,2013-01-09 07:21:00,
2013-01-08 23:36:00,37.3,33.0,30.05,ESE,121,1.0,7.0,84,0.01,,,0.23,weatherlink.com 1.10,2013-01-09 07:36:00,
2013-01-08 23:51:00,37.0,33.0,30.05,NNE,31,2.0,8.0,84,0.01,,,0.24,weatherlink.com 1.10,2013-01-09 07:51:00,